01.01.2019 00:15;840
01.01.2019 00:30;840
01.01.2019 00:45;912
01.01.2019 01:00;1274
01.01.2019 01:15;1913
01.01.2019 01:30;1981
01.01.2019 01:45;1244
01.01.2019 02:00;2699
01.01.2019 02:15;4366
01.01.2019 02:30;6630
01.01.2019 02:45;7798
01.01.2019 03:00;10983
01.01.2019 03:15;19361
01.01.2019 03:30;17797
01.01.2019 03:45;17662
01.01.2019 04:00;22784
01.01.2019 04:15;25139
01.01.2019 04:30;23183
01.01.2019 04:45;23816
01.01.2019 05:00;25934
01.01.2019 05:15;31578
01.01.2019 05:30;28483
01.01.2019 05:45;24186
01.01.2019 06:00;26433
01.01.2019 06:15;45118
01.01.2019 06:30;56444
01.01.2019 06:45;59539
01.01.2019 07:00;62123
01.01.2019 07:15;58799
01.01.2019 07:30;63499
01.01.2019 07:45;92905
01.01.2019 08:00;101092
01.01.2019 08:15;79738
01.01.2019 08:30;55558
01.01.2019 08:45;43939
01.01.2019 09:00;49020
01.01.2019 09:15;53816
01.01.2019 09:30;67462
01.01.2019 09:45;70926
01.01.2019 10:00;73150
01.01.2019 10:15;76045
01.01.2019 10:30;74563
01.01.2019 10:45;81539
01.01.2019 11:00;96158
01.01.2019 11:15;96643
01.01.2019 11:30;96587
01.01.2019 11:45;107611
01.01.2019 12:00;103903
01.01.2019 12:15;90281
01.01.2019 12:30;75875
01.01.2019 12:45;68063
01.01.2019 13:00;69677
01.01.2019 13:15;74288
01.01.2019 13:30;80644
01.01.2019 13:45;66623
01.01.2019 14:00;60653
01.01.2019 14:15;66576
01.01.2019 14:30;68192
01.01.2019 14:45;79031
01.01.2019 15:00;91682
01.01.2019 15:15;95375
01.01.2019 15:30;96566
01.01.2019 15:45;90040
01.01.2019 16:00;93557
01.01.2019 16:15;100579
01.01.2019 16:30;103246
01.01.2019 16:45;111436
01.01.2019 17:00;114630
01.01.2019 17:15;126642
01.01.2019 17:30;138026
01.01.2019 17:45;144550
01.01.2019 18:00;131359
01.01.2019 18:15;112609
01.01.2019 18:30;100251
01.01.2019 18:45;108174
01.01.2019 19:00;91952
01.01.2019 19:15;101281
01.01.2019 19:30;115498
01.01.2019 19:45;140971
01.01.2019 20:00;147539
01.01.2019 20:15;142901
01.01.2019 20:30;122834
01.01.2019 20:45;113521
01.01.2019 21:00;138307
01.01.2019 21:15;147389
01.01.2019 21:30;143960
01.01.2019 21:45;124498
01.01.2019 22:00;99573
01.01.2019 22:15;110816
01.01.2019 22:30;136904
01.01.2019 22:45;129155
01.01.2019 23:00;131730
01.01.2019 23:15;141195
01.01.2019 23:30;147952
01.01.2019 23:45;143571
02.01.2019 00:00;149835
02.01.2019 00:15;139886
02.01.2019 00:30;135243
02.01.2019 00:45;121628
02.01.2019 01:00;122743
02.01.2019 01:15;122133
02.01.2019 01:30;111860
02.01.2019 01:45;105739
02.01.2019 02:00;114392
02.01.2019 02:15;130423
02.01.2019 02:30;150554
02.01.2019 02:45;154733
02.01.2019 03:00;121257
02.01.2019 03:15;112458
02.01.2019 03:30;115167
02.01.2019 03:45;124707
02.01.2019 04:00;128570
02.01.2019 04:15;137782
02.01.2019 04:30;144118
02.01.2019 04:45;141015
02.01.2019 05:00;148665
02.01.2019 05:15;147864
02.01.2019 05:30;142781
02.01.2019 05:45;146468
02.01.2019 06:00;138976
02.01.2019 06:15;142341
02.01.2019 06:30;138428
02.01.2019 06:45;139774
02.01.2019 07:00;136800
02.01.2019 07:15;132649
02.01.2019 07:30;130610
02.01.2019 07:45;140804
02.01.2019 08:00;145908
02.01.2019 08:15;156069
02.01.2019 08:30;155180
02.01.2019 08:45;139288
02.01.2019 09:00;125345
02.01.2019 09:15;130696
02.01.2019 09:30;133034
02.01.2019 09:45;135128
02.01.2019 10:00;144767
02.01.2019 10:15;159577
02.01.2019 10:30;160660
02.01.2019 10:45;147674
02.01.2019 11:00;144532
02.01.2019 11:15;127780
02.01.2019 11:30;116143
02.01.2019 11:45;116736
02.01.2019 12:00;116243
02.01.2019 12:15;128596
02.01.2019 12:30;138094
02.01.2019 12:45;129678
02.01.2019 13:00;104067
02.01.2019 13:15;89611
02.01.2019 13:30;89294
02.01.2019 13:45;71483
02.01.2019 14:00;72392
02.01.2019 14:15;84818
02.01.2019 14:30;97648
02.01.2019 14:45;103723
02.01.2019 15:00;106208
02.01.2019 15:15;99013
02.01.2019 15:30;101227
02.01.2019 15:45;86522
02.01.2019 16:00;86552
02.01.2019 16:15;87050
02.01.2019 16:30;78905
02.01.2019 16:45;95804
02.01.2019 17:00;82759
02.01.2019 17:15;91289
02.01.2019 17:30;96658
02.01.2019 17:45;83464
02.01.2019 18:00;58516
02.01.2019 18:15;44509
02.01.2019 18:30;49367
02.01.2019 18:45;60416
02.01.2019 19:00;57269
02.01.2019 19:15;45286
02.01.2019 19:30;50191
02.01.2019 19:45;69014
02.01.2019 20:00;75980
02.01.2019 20:15;79454
02.01.2019 20:30;100093
02.01.2019 20:45;99479
02.01.2019 21:00;84619
02.01.2019 21:15;74786
02.01.2019 21:30;69612
02.01.2019 21:45;67612
02.01.2019 22:00;56028
02.01.2019 22:15;34952
02.01.2019 22:30;24700
02.01.2019 22:45;22224
02.01.2019 23:00;18490
02.01.2019 23:15;13556
02.01.2019 23:30;10021
02.01.2019 23:45;9326
03.01.2019 00:00;6243
03.01.2019 00:15;4157
03.01.2019 00:30;3861
03.01.2019 00:45;2705
03.01.2019 01:00;2620
03.01.2019 01:15;3650
03.01.2019 01:30;5128
03.01.2019 01:45;4448
03.01.2019 02:00;4888
03.01.2019 02:15;4735
03.01.2019 02:30;4128
03.01.2019 02:45;4016
03.01.2019 03:00;2828
03.01.2019 03:15;4363
03.01.2019 03:30;3521
03.01.2019 03:45;2693
03.01.2019 04:00;3703
03.01.2019 04:15;4366
03.01.2019 04:30;5571
03.01.2019 04:45;7504
03.01.2019 05:00;6372
03.01.2019 05:15;2251
03.01.2019 05:30;881
03.01.2019 05:45;2650
03.01.2019 06:00;5894
03.01.2019 06:15;9992
03.01.2019 06:30;17017
03.01.2019 06:45;21590
03.01.2019 07:00;26841
03.01.2019 07:15;25621
03.01.2019 07:30;17759
03.01.2019 07:45;13010
03.01.2019 08:00;10787
03.01.2019 08:15;10652
03.01.2019 08:30;7064
03.01.2019 08:45;5222
03.01.2019 09:00;8344
03.01.2019 09:15;9819
03.01.2019 09:30;13899
03.01.2019 09:45;12368
03.01.2019 10:00;13195
03.01.2019 10:15;15166
03.01.2019 10:30;16040
03.01.2019 10:45;13585
03.01.2019 11:00;8631
03.01.2019 11:15;6378
03.01.2019 11:30;7727
03.01.2019 11:45;7555
03.01.2019 12:00;6208
03.01.2019 12:15;7434
03.01.2019 12:30;4929
03.01.2019 12:45;4944
03.01.2019 13:00;5797
03.01.2019 13:15;8341
03.01.2019 13:30;17108
03.01.2019 13:45;18628
03.01.2019 14:00;21640
03.01.2019 14:15;26134
03.01.2019 14:30;27583
03.01.2019 14:45;22382
03.01.2019 15:00;19634
03.01.2019 15:15;21191
03.01.2019 15:30;23441
03.01.2019 15:45;22042
03.01.2019 16:00;14427
03.01.2019 16:15;12268
03.01.2019 16:30;11770
03.01.2019 16:45;14574
03.01.2019 17:00;13210
03.01.2019 17:15;14521
03.01.2019 17:30;21925
03.01.2019 17:45;23278
03.01.2019 18:00;15982
03.01.2019 18:15;15451
03.01.2019 18:30;15041
03.01.2019 18:45;15906
03.01.2019 19:00;16997
03.01.2019 19:15;23483
03.01.2019 19:30;24893
03.01.2019 19:45;27281
03.01.2019 20:00;20048
03.01.2019 20:15;20388
03.01.2019 20:30;19303
03.01.2019 20:45;19954
03.01.2019 21:00;23949
03.01.2019 21:15;31754
03.01.2019 21:30;28454
03.01.2019 21:45;18484
03.01.2019 22:00;11588
03.01.2019 22:15;11016
03.01.2019 22:30;9265
03.01.2019 22:45;7519
03.01.2019 23:00;4061
03.01.2019 23:15;5213
03.01.2019 23:30;5428
03.01.2019 23:45;7147
04.01.2019 00:00;4768
04.01.2019 00:15;1412
04.01.2019 00:30;1272
04.01.2019 00:45;1332
04.01.2019 01:00;1380
04.01.2019 01:15;1380
04.01.2019 01:30;1308
04.01.2019 01:45;1308
04.01.2019 02:00;1368
04.01.2019 02:15;1308
04.01.2019 02:30;1272
04.01.2019 02:45;1296
04.01.2019 03:00;1260
04.01.2019 03:15;1224
04.01.2019 03:30;1332
04.01.2019 03:45;1392
04.01.2019 04:00;1368
04.01.2019 04:15;1368
04.01.2019 04:30;2086
04.01.2019 04:45;1368
04.01.2019 05:00;1404
04.01.2019 05:15;3515
04.01.2019 05:30;8851
04.01.2019 05:45;12682
04.01.2019 06:00;23785
04.01.2019 06:15;29522
04.01.2019 06:30;26052
04.01.2019 06:45;27973
04.01.2019 07:00;25703
04.01.2019 07:15;27287
04.01.2019 07:30;25195
04.01.2019 07:45;21514
04.01.2019 08:00;22901
04.01.2019 08:15;24172
04.01.2019 08:30;23016
04.01.2019 08:45;22643
04.01.2019 09:00;17604
04.01.2019 09:15;16261
04.01.2019 09:30;20470
04.01.2019 09:45;22901
04.01.2019 10:00;22423
04.01.2019 10:15;19516
04.01.2019 10:30;14609
04.01.2019 10:45;13069
04.01.2019 11:00;20375
04.01.2019 11:15;10951
04.01.2019 11:30;3764
04.01.2019 11:45;1943
04.01.2019 12:00;5929
04.01.2019 12:15;6794
04.01.2019 12:30;7070
04.01.2019 12:45;2573
04.01.2019 13:00;1588
04.01.2019 13:15;3653
04.01.2019 13:30;3078
04.01.2019 13:45;1940
04.01.2019 14:00;1392
04.01.2019 14:15;1416
04.01.2019 14:30;1332
04.01.2019 14:45;1356
04.01.2019 15:00;2072
04.01.2019 15:15;2078
04.01.2019 15:30;5126
04.01.2019 15:45;9928
04.01.2019 16:00;16571
04.01.2019 16:15;15257
04.01.2019 16:30;19297
04.01.2019 16:45;22379
04.01.2019 17:00;25055
04.01.2019 17:15;27671
04.01.2019 17:30;34885
04.01.2019 17:45;29722
04.01.2019 18:00;16534
04.01.2019 18:15;13765
04.01.2019 18:30;10418
04.01.2019 18:45;15454
04.01.2019 19:00;20162
04.01.2019 19:15;22136
04.01.2019 19:30;20230
04.01.2019 19:45;24187
04.01.2019 20:00;30482
04.01.2019 20:15;28460
04.01.2019 20:30;41795
04.01.2019 20:45;38947
04.01.2019 21:00;41373
04.01.2019 21:15;45700
04.01.2019 21:30;29572
04.01.2019 21:45;30138
04.01.2019 22:00;19267
04.01.2019 22:15;15257
04.01.2019 22:30;9520
04.01.2019 22:45;8361
04.01.2019 23:00;10942
04.01.2019 23:15;17944
04.01.2019 23:30;29287
04.01.2019 23:45;39926
05.01.2019 00:00;52396
05.01.2019 00:15;66059
05.01.2019 00:30;71266
05.01.2019 00:45;70844
05.01.2019 01:00;73167
05.01.2019 01:15;71815
05.01.2019 01:30;77464
05.01.2019 01:45;78570
05.01.2019 02:00;88074
05.01.2019 02:15;103627
05.01.2019 02:30;97951
05.01.2019 02:45;80662
05.01.2019 03:00;80048
05.01.2019 03:15;86305
05.01.2019 03:30;78676
05.01.2019 03:45;75299
05.01.2019 04:00;80075
05.01.2019 04:15;87206
05.01.2019 04:30;109352
05.01.2019 04:45;128463
05.01.2019 05:00;133198
05.01.2019 05:15;135808
05.01.2019 05:30;138313
05.01.2019 05:45;145291
05.01.2019 06:00;149929
05.01.2019 06:15;167119
05.01.2019 06:30;171706
05.01.2019 06:45;160289
05.01.2019 07:00;162766
05.01.2019 07:15;159682
05.01.2019 07:30;158545
05.01.2019 07:45;153232
05.01.2019 08:00;154588
05.01.2019 08:15;167371
05.01.2019 08:30;162930
05.01.2019 08:45;154699
05.01.2019 09:00;150135
05.01.2019 09:15;156659
05.01.2019 09:30;151467
05.01.2019 09:45;154834
05.01.2019 10:00;156148
05.01.2019 10:15;148073
05.01.2019 10:30;142406
05.01.2019 10:45;137472
05.01.2019 11:00;134360
05.01.2019 11:15;124624
05.01.2019 11:30;116006
05.01.2019 11:45;106420
05.01.2019 12:00;100430
05.01.2019 12:15;92844
05.01.2019 12:30;91656
05.01.2019 12:45;82883
05.01.2019 13:00;77872
05.01.2019 13:15;95728
05.01.2019 13:30;122344
05.01.2019 13:45;146714
05.01.2019 14:00;162927
05.01.2019 14:15;173372
05.01.2019 14:30;171243
05.01.2019 14:45;172730
05.01.2019 15:00;168233
05.01.2019 15:15;160499
05.01.2019 15:30;156685
05.01.2019 15:45;155782
05.01.2019 16:00;149748
05.01.2019 16:15;146436
05.01.2019 16:30;137410
05.01.2019 16:45;128279
05.01.2019 17:00;120277
05.01.2019 17:15;126962
05.01.2019 17:30;133782
05.01.2019 17:45;145820
05.01.2019 18:00;149833
05.01.2019 18:15;153585
05.01.2019 18:30;150839
05.01.2019 18:45;140045
05.01.2019 19:00;128446
05.01.2019 19:15;123982
05.01.2019 19:30;120330
05.01.2019 19:45;127613
05.01.2019 20:00;131124
05.01.2019 20:15;137258
05.01.2019 20:30;145984
05.01.2019 20:45;151282
05.01.2019 21:00;153910
05.01.2019 21:15;149343
05.01.2019 21:30;141716
05.01.2019 21:45;128197
05.01.2019 22:00;111301
05.01.2019 22:15;91415
05.01.2019 22:30;89036
05.01.2019 22:45;97435
05.01.2019 23:00;105173
05.01.2019 23:15;111130
05.01.2019 23:30;111077
05.01.2019 23:45;112846
06.01.2019 00:00;116648
06.01.2019 00:15;111823
06.01.2019 00:30;114451
06.01.2019 00:45;126997
06.01.2019 01:00;116698
06.01.2019 01:15;110649
06.01.2019 01:30;113116
06.01.2019 01:45;118223
06.01.2019 02:00;118595
06.01.2019 02:15;122503
06.01.2019 02:30;116929
06.01.2019 02:45;113791
06.01.2019 03:00;123215
06.01.2019 03:15;133614
06.01.2019 03:30;147662
06.01.2019 03:45;148662
06.01.2019 04:00;156001
06.01.2019 04:15;159278
06.01.2019 04:30;156714
06.01.2019 04:45;149137
06.01.2019 05:00;141245
06.01.2019 05:15;147762
06.01.2019 05:30;144863
06.01.2019 05:45;135119
06.01.2019 06:00;126647
06.01.2019 06:15;120810
06.01.2019 06:30;113101
06.01.2019 06:45;108722
06.01.2019 07:00;85420
06.01.2019 07:15;76112
06.01.2019 07:30;81955
06.01.2019 07:45;92542
06.01.2019 08:00;107933
06.01.2019 08:15;107470
06.01.2019 08:30;107170
06.01.2019 08:45;101823
06.01.2019 09:00;89447
06.01.2019 09:15;87769
06.01.2019 09:30;85408
06.01.2019 09:45;80354
06.01.2019 10:00;87165
06.01.2019 10:15;100060
06.01.2019 10:30;93272
06.01.2019 10:45;83983
06.01.2019 11:00;77969
06.01.2019 11:15;67787
06.01.2019 11:30;71507
06.01.2019 11:45;71023
06.01.2019 12:00;68172
06.01.2019 12:15;65658
06.01.2019 12:30;62305
06.01.2019 12:45;57043
06.01.2019 13:00;49076
06.01.2019 13:15;40426
06.01.2019 13:30;27381
06.01.2019 13:45;23398
06.01.2019 14:00;28669
06.01.2019 14:15;27768
06.01.2019 14:30;28939
06.01.2019 14:45;26269
06.01.2019 15:00;24368
06.01.2019 15:15;24342
06.01.2019 15:30;20540
06.01.2019 15:45;16003
06.01.2019 16:00;19085
06.01.2019 16:15;25148
06.01.2019 16:30;26850
06.01.2019 16:45;25917
06.01.2019 17:00;30490
06.01.2019 17:15;30038
06.01.2019 17:30;30523
06.01.2019 17:45;32808
06.01.2019 18:00;32978
06.01.2019 18:15;34509
06.01.2019 18:30;34228
06.01.2019 18:45;29203
06.01.2019 19:00;25184
06.01.2019 19:15;23606
06.01.2019 19:30;22031
06.01.2019 19:45;22480
06.01.2019 20:00;18065
06.01.2019 20:15;19963
06.01.2019 20:30;23236
06.01.2019 20:45;29164
06.01.2019 21:00;34256
06.01.2019 21:15;36530
06.01.2019 21:30;33602
06.01.2019 21:45;21185
06.01.2019 22:00;13700
06.01.2019 22:15;11711
06.01.2019 22:30;13694
06.01.2019 22:45;13852
06.01.2019 23:00;11306
06.01.2019 23:15;8722
06.01.2019 23:30;8240
06.01.2019 23:45;5656
07.01.2019 00:00;7821
07.01.2019 00:15;6712
07.01.2019 00:30;6316
07.01.2019 00:45;7812
07.01.2019 01:00;8774
07.01.2019 01:15;10006
07.01.2019 01:30;8264
07.01.2019 01:45;10414
07.01.2019 02:00;10643
07.01.2019 02:15;7023
07.01.2019 02:30;9616
07.01.2019 02:45;6178
07.01.2019 03:00;4967
07.01.2019 03:15;8933
07.01.2019 03:30;7422
07.01.2019 03:45;6389
07.01.2019 04:00;4518
07.01.2019 04:15;6313
07.01.2019 04:30;5888
07.01.2019 04:45;7032
07.01.2019 05:00;8425
07.01.2019 05:15;10015
07.01.2019 05:30;9751
07.01.2019 05:45;11593
07.01.2019 06:00;10420
07.01.2019 06:15;5856
07.01.2019 06:30;3914
07.01.2019 06:45;1497
07.01.2019 07:00;1188
07.01.2019 07:15;1080
07.01.2019 07:30;1176
07.01.2019 07:45;2729
07.01.2019 08:00;4378
07.01.2019 08:15;5715
07.01.2019 08:30;7460
07.01.2019 08:45;5305
07.01.2019 09:00;4451
07.01.2019 09:15;4809
07.01.2019 09:30;4747
07.01.2019 09:45;3712
07.01.2019 10:00;3929
07.01.2019 10:15;3046
07.01.2019 10:30;1244
07.01.2019 10:45;996
07.01.2019 11:00;2221
07.01.2019 11:15;1895
07.01.2019 11:30;1188
07.01.2019 11:45;1092
07.01.2019 12:00;1116
07.01.2019 12:15;1212
07.01.2019 12:30;1284
07.01.2019 12:45;1212
07.01.2019 13:00;1308
07.01.2019 13:15;1212
07.01.2019 13:30;1176
07.01.2019 13:45;1260
07.01.2019 14:00;1200
07.01.2019 14:15;1284
07.01.2019 14:30;2632
07.01.2019 14:45;4879
07.01.2019 15:00;6082
07.01.2019 15:15;7583
07.01.2019 15:30;5906
07.01.2019 15:45;7771
07.01.2019 16:00;11159
07.01.2019 16:15;12773
07.01.2019 16:30;10922
07.01.2019 16:45;9575
07.01.2019 17:00;9681
07.01.2019 17:15;9945
07.01.2019 17:30;11294
07.01.2019 17:45;13835
07.01.2019 18:00;14636
07.01.2019 18:15;11926
07.01.2019 18:30;13747
07.01.2019 18:45;10881
07.01.2019 19:00;9353
07.01.2019 19:15;15451
07.01.2019 19:30;23717
07.01.2019 19:45;31198
07.01.2019 20:00;41878
07.01.2019 20:15;57518
07.01.2019 20:30;68591
07.01.2019 20:45;74323
07.01.2019 21:00;83672
07.01.2019 21:15;88870
07.01.2019 21:30;87585
07.01.2019 21:45;88544
07.01.2019 22:00;99834
07.01.2019 22:15;98197
07.01.2019 22:30;100468
07.01.2019 22:45;106460
07.01.2019 23:00;114037
07.01.2019 23:15;119050
07.01.2019 23:30;131167
07.01.2019 23:45;134878
08.01.2019 00:00;133523
08.01.2019 00:15;128901
08.01.2019 00:30;133357
08.01.2019 00:45;158389
08.01.2019 01:00;161949
08.01.2019 01:15;147750
08.01.2019 01:30;132572
08.01.2019 01:45;158146
08.01.2019 02:00;175599
08.01.2019 02:15;174663
08.01.2019 02:30;178567
08.01.2019 02:45;181342
08.01.2019 03:00;182896
08.01.2019 03:15;181793
08.01.2019 03:30;180894
08.01.2019 03:45;181179
08.01.2019 04:00;172012
08.01.2019 04:15;161506
08.01.2019 04:30;162822
08.01.2019 04:45;167830
08.01.2019 05:00;169804
08.01.2019 05:15;151528
08.01.2019 05:30;139343
08.01.2019 05:45;102280
08.01.2019 06:00;67118
08.01.2019 06:15;55370
08.01.2019 06:30;80189
08.01.2019 06:45;88186
08.01.2019 07:00;84994
08.01.2019 07:15;68048
08.01.2019 07:30;82562
08.01.2019 07:45;81615
08.01.2019 08:00;98009
08.01.2019 08:15;103659
08.01.2019 08:30;127108
08.01.2019 08:45;143004
08.01.2019 09:00;148216
08.01.2019 09:15;153470
08.01.2019 09:30;154623
08.01.2019 09:45;153176
08.01.2019 10:00;154928
08.01.2019 10:15;153977
08.01.2019 10:30;155981
08.01.2019 10:45;156356
08.01.2019 11:00;159260
08.01.2019 11:15;158726
08.01.2019 11:30;156066
08.01.2019 11:45;160624
08.01.2019 12:00;160123
08.01.2019 12:15;160287
08.01.2019 12:30;166359
08.01.2019 12:45;157471
08.01.2019 13:00;152429
08.01.2019 13:15;148192
08.01.2019 13:30;130898
08.01.2019 13:45;130286
08.01.2019 14:00;138905
08.01.2019 14:15;144219
08.01.2019 14:30;151103
08.01.2019 14:45;163220
08.01.2019 15:00;161507
08.01.2019 15:15;153584
08.01.2019 15:30;157547
08.01.2019 15:45;163534
08.01.2019 16:00;161792
08.01.2019 16:15;150070
08.01.2019 16:30;148070
08.01.2019 16:45;145720
08.01.2019 17:00;147598
08.01.2019 17:15;131972
08.01.2019 17:30;138845
08.01.2019 17:45;142617
08.01.2019 18:00;141429
08.01.2019 18:15;152071
08.01.2019 18:30;159704
08.01.2019 18:45;161024
08.01.2019 19:00;148270
08.01.2019 19:15;146445
08.01.2019 19:30;141180
08.01.2019 19:45;149918
08.01.2019 20:00;158507
08.01.2019 20:15;159296
08.01.2019 20:30;162572
08.01.2019 20:45;165236
08.01.2019 21:00;170334
08.01.2019 21:15;172423
08.01.2019 21:30;174112
08.01.2019 21:45;168668
08.01.2019 22:00;163006
08.01.2019 22:15;135316
08.01.2019 22:30;141229
08.01.2019 22:45;151003
08.01.2019 23:00;147604
08.01.2019 23:15;132089
08.01.2019 23:30;132403
08.01.2019 23:45;134488
09.01.2019 00:00;139874
09.01.2019 00:15;147641
09.01.2019 00:30;147081
09.01.2019 00:45;150319
09.01.2019 01:00;148642
09.01.2019 01:15;137339
09.01.2019 01:30;142030
09.01.2019 01:45;127862
09.01.2019 02:00;137580
09.01.2019 02:15;148237
09.01.2019 02:30;144385
09.01.2019 02:45;145946
09.01.2019 03:00;137524
09.01.2019 03:15;112963
09.01.2019 03:30;124116
09.01.2019 03:45;136468
09.01.2019 04:00;141502
09.01.2019 04:15;144649
09.01.2019 04:30;146767
09.01.2019 04:45;154444
09.01.2019 05:00;151513
09.01.2019 05:15;137023
09.01.2019 05:30;134855
09.01.2019 05:45;151703
09.01.2019 06:00;156353
09.01.2019 06:15;160231
09.01.2019 06:30;139933
09.01.2019 06:45;145037
09.01.2019 07:00;148844
09.01.2019 07:15;148944
09.01.2019 07:30;147152
09.01.2019 07:45;147739
09.01.2019 08:00;134371
09.01.2019 08:15;127736
09.01.2019 08:30;131784
09.01.2019 08:45;117320
09.01.2019 09:00;101591
09.01.2019 09:15;94745
09.01.2019 09:30;96419
09.01.2019 09:45;94255
09.01.2019 10:00;105551
09.01.2019 10:15;132611
09.01.2019 10:30;145861
09.01.2019 10:45;128862
09.01.2019 11:00;126087
09.01.2019 11:15;126721
09.01.2019 11:30;117152
09.01.2019 11:45;91723
09.01.2019 12:00;103659
09.01.2019 12:15;118426
09.01.2019 12:30;119390
09.01.2019 12:45;105049
09.01.2019 13:00;102814
09.01.2019 13:15;138105
09.01.2019 13:30;157747
09.01.2019 13:45;162026
09.01.2019 14:00;148339
09.01.2019 14:15;126674
09.01.2019 14:30;104419
09.01.2019 14:45;83504
09.01.2019 15:00;69943
09.01.2019 15:15;82668
09.01.2019 15:30;79840
09.01.2019 15:45;74434
09.01.2019 16:00;87265
09.01.2019 16:15;92413
09.01.2019 16:30;108047
09.01.2019 16:45;111591
09.01.2019 17:00;103850
09.01.2019 17:15;99949
09.01.2019 17:30;90110
09.01.2019 17:45;60918
09.01.2019 18:00;49088
09.01.2019 18:15;59633
09.01.2019 18:30;78536
09.01.2019 18:45;99620
09.01.2019 19:00;114886
09.01.2019 19:15;108447
09.01.2019 19:30;88574
09.01.2019 19:45;68999
09.01.2019 20:00;55556
09.01.2019 20:15;57037
09.01.2019 20:30;58850
09.01.2019 20:45;65667
09.01.2019 21:00;64063
09.01.2019 21:15;73505
09.01.2019 21:30;65515
09.01.2019 21:45;60184
09.01.2019 22:00;60613
09.01.2019 22:15;52798
09.01.2019 22:30;46717
09.01.2019 22:45;49753
09.01.2019 23:00;50968
09.01.2019 23:15;49741
09.01.2019 23:30;54473
09.01.2019 23:45;48483
10.01.2019 00:00;53675
10.01.2019 00:15;59955
10.01.2019 00:30;62372
10.01.2019 00:45;60644
10.01.2019 01:00;44989
10.01.2019 01:15;35392
10.01.2019 01:30;32977
10.01.2019 01:45;37627
10.01.2019 02:00;46183
10.01.2019 02:15;42270
10.01.2019 02:30;33772
10.01.2019 02:45;27413
10.01.2019 03:00;23995
10.01.2019 03:15;23080
10.01.2019 03:30;25691
10.01.2019 03:45;28120
10.01.2019 04:00;32869
10.01.2019 04:15;31898
10.01.2019 04:30;27879
10.01.2019 04:45;22948
10.01.2019 05:00;18407
10.01.2019 05:15;22318
10.01.2019 05:30;22576
10.01.2019 05:45;20892
10.01.2019 06:00;13556
10.01.2019 06:15;11347
10.01.2019 06:30;7648
10.01.2019 06:45;5351
10.01.2019 07:00;3820
10.01.2019 07:15;1044
10.01.2019 07:30;1056
10.01.2019 07:45;960
10.01.2019 08:00;888
10.01.2019 08:15;1315
10.01.2019 08:30;1919
10.01.2019 08:45;2383
10.01.2019 09:00;6337
10.01.2019 09:15;8572
10.01.2019 09:30;9326
10.01.2019 09:45;8114
10.01.2019 10:00;5287
10.01.2019 10:15;3914
10.01.2019 10:30;2494
10.01.2019 10:45;1910
10.01.2019 11:00;1056
10.01.2019 11:15;1008
10.01.2019 11:30;972
10.01.2019 11:45;972
10.01.2019 12:00;876
10.01.2019 12:15;1541
10.01.2019 12:30;948
10.01.2019 12:45;1039
10.01.2019 13:00;984
10.01.2019 13:15;1044
10.01.2019 13:30;1068
10.01.2019 13:45;1056
10.01.2019 14:00;984
10.01.2019 14:15;1359
10.01.2019 14:30;1465
10.01.2019 14:45;2588
10.01.2019 15:00;3213
10.01.2019 15:15;2045
10.01.2019 15:30;1817
10.01.2019 15:45;1553
10.01.2019 16:00;1116
10.01.2019 16:15;1544
10.01.2019 16:30;2503
10.01.2019 16:45;2441
10.01.2019 17:00;1623
10.01.2019 17:15;1032
10.01.2019 17:30;1020
10.01.2019 17:45;948
10.01.2019 18:00;912
10.01.2019 18:15;1128
10.01.2019 18:30;1236
10.01.2019 18:45;1200
10.01.2019 19:00;1212
10.01.2019 19:15;1320
10.01.2019 19:30;1320
10.01.2019 19:45;1224
10.01.2019 20:00;1176
10.01.2019 20:15;1104
10.01.2019 20:30;1140
10.01.2019 20:45;1260
10.01.2019 21:00;1320
10.01.2019 21:15;1416
10.01.2019 21:30;1404
10.01.2019 21:45;1476
10.01.2019 22:00;1524
10.01.2019 22:15;1488
10.01.2019 22:30;1428
10.01.2019 22:45;1524
10.01.2019 23:00;1548
10.01.2019 23:15;1476
10.01.2019 23:30;1536
10.01.2019 23:45;1572
11.01.2019 00:00;1584
11.01.2019 00:15;1536
11.01.2019 00:30;1548
11.01.2019 00:45;1572
11.01.2019 01:00;1476
11.01.2019 01:15;1500
11.01.2019 01:30;1380
11.01.2019 01:45;1416
11.01.2019 02:00;1560
11.01.2019 02:15;1500
11.01.2019 02:30;1512
11.01.2019 02:45;1500
11.01.2019 03:00;1548
11.01.2019 03:15;1464
11.01.2019 03:30;1536
11.01.2019 03:45;1476
11.01.2019 04:00;1452
11.01.2019 04:15;1548
11.01.2019 04:30;1512
11.01.2019 04:45;1380
11.01.2019 05:00;1440
11.01.2019 05:15;1320
11.01.2019 05:30;1236
11.01.2019 05:45;1308
11.01.2019 06:00;1260
11.01.2019 06:15;1212
11.01.2019 06:30;1164
11.01.2019 06:45;1068
11.01.2019 07:00;1661
11.01.2019 07:15;1603
11.01.2019 07:30;1262
11.01.2019 07:45;3107
11.01.2019 08:00;5255
11.01.2019 08:15;5469
11.01.2019 08:30;6812
11.01.2019 08:45;8083
11.01.2019 09:00;7294
11.01.2019 09:15;7006